• In Belarus
  • List of Countries
  • For 7 days
  • Water Temperature
  • Satellite Maps
  • Weather Map
  • Weather Widgets
  • user-avatar
    Login

    Hourly Weather Shalim

    Today, 23 November, Thursday

    Time Temperature Precipitation Wind Pressure Humidity
    00:00 +23°C° 0 mm 4 mps 735 mmHg 80%
    01:00 +22°C° 0 mm 3 mps 735 mmHg 82%
    02:00 +22°C° 0 mm 3 mps 735 mmHg 84%
    03:00 +22°C° 0 mm 3 mps 735 mmHg 86%
    04:00 +22°C° 0 mm 3 mps 735 mmHg 88%
    05:00 +22°C° 0 mm 3 mps 736 mmHg 88%
    06:00 +22°C° 0 mm 3 mps 736 mmHg 89%
    07:00 +22°C° 0 mm 3 mps 736 mmHg 89%
    08:00 +24°C° 0 mm 3 mps 736 mmHg 80%
    09:00 +26°C° 0 mm 4 mps 737 mmHg 71%
    10:00 +28°C° 0 mm 4 mps 737 mmHg 59%
    11:00 +29°C° 0 mm 4 mps 736 mmHg 55%
    12:00 +29°C° 0 mm 4 mps 736 mmHg 52%
    13:00 +30°C° 0 mm 4 mps 735 mmHg 49%
    14:00 +30°C° 0 mm 5 mps 735 mmHg 51%
    15:00 +30°C° 0 mm 5 mps 735 mmHg 54%
    16:00 +29°C° 0 mm 5 mps 734 mmHg 57%
    17:00 +28°C° 0 mm 5 mps 735 mmHg 63%
    18:00 +27°C° 0 mm 5 mps 735 mmHg 70%
    19:00 +26°C° 0 mm 5 mps 735 mmHg 76%
    20:00 +26°C° 0 mm 5 mps 735 mmHg 78%
    21:00 +25°C° 0 mm 5 mps 736 mmHg 80%
    22:00 +25°C° 0 mm 5 mps 736 mmHg 82%
    23:00 +25°C° 0 mm 4 mps 736 mmHg 84%

    Tomorrow, 24 November, Friday

    Time Temperature Precipitation Wind Pressure Humidity
    00:00 +23°C° 0 mm 4 mps 736 mmHg 85%
    01:00 +24°C° 0 mm 3 mps 736 mmHg 86%
    02:00 +24°C° 0 mm 3 mps 736 mmHg 88%
    03:00 +24°C° 0 mm 3 mps 736 mmHg 89%
    04:00 +24°C° 0 mm 3 mps 736 mmHg 91%
    05:00 +22°C° 0 mm 3 mps 736 mmHg 91%
    06:00 +22°C° 0 mm 3 mps 737 mmHg 91%
    07:00 +22°C° 0 mm 3 mps 737 mmHg 91%
    08:00 +25°C° 0 mm 3 mps 737 mmHg 82%
    09:00 +26°C° 0 mm 4 mps 738 mmHg 72%
    10:00 +28°C° 0 mm 4 mps 738 mmHg 63%
    11:00 +29°C° 0 mm 4 mps 738 mmHg 59%
    12:00 +30°C° 0 mm 4 mps 737 mmHg 55%
    13:00 +32°C° 0 mm 4 mps 737 mmHg 52%
    14:00 +30°C° 0 mm 5 mps 737 mmHg 53%
    15:00 +30°C° 0 mm 5 mps 737 mmHg 54%
    16:00 +30°C° 0 mm 5 mps 736 mmHg 56%
    17:00 +29°C° 0 mm 5 mps 737 mmHg 61%
    18:00 +28°C° 0 mm 5 mps 737 mmHg 65%
    19:00 +27°C° 0 mm 5 mps 737 mmHg 70%
    20:00 +27°C° 0 mm 4 mps 738 mmHg 73%
    21:00 +26°C° 0 mm 4 mps 738 mmHg 75%
    22:00 +26°C° 0 mm 4 mps 738 mmHg 78%
    23:00 +25°C° 0 mm 4 mps 738 mmHg 80%

    Day after tomorrow, 25 November, Saturday

    Time Temperature Precipitation Wind Pressure Humidity
    00:00 +25°C° 0 mm 3 mps 738 mmHg 83%
    01:00 +25°C° 0 mm 3 mps 738 mmHg 85%
    02:00 +24°C° 0 mm 3 mps 738 mmHg 86%
    03:00 +24°C° 0 mm 2 mps 738 mmHg 87%
    04:00 +24°C° 0 mm 2 mps 738 mmHg 89%
    05:00 +24°C° 0 mm 2 mps 738 mmHg 89%
    06:00 +24°C° 0 mm 2 mps 739 mmHg 88%
    07:00 +23°C° 0 mm 2 mps 739 mmHg 88%
    08:00 +25°C° 0 mm 3 mps 740 mmHg 74%
    09:00 +27°C° 0 mm 3 mps 740 mmHg 60%
    10:00 +29°C° 0 mm 4 mps 741 mmHg 46%
    11:00 +30°C° 0 mm 4 mps 740 mmHg 41%
    12:00 +32°C° 0 mm 4 mps 740 mmHg 36%
    13:00 +33°C° 0 mm 5 mps 739 mmHg 31%
    14:00 +33°C° 0 mm 5 mps 739 mmHg 31%
    15:00 +33°C° 0 mm 5 mps 738 mmHg 31%
    16:00 +33°C° 0 mm 5 mps 738 mmHg 31%
    17:00 +32°C° 0 mm 4 mps 738 mmHg 36%
    18:00 +29°C° 0 mm 4 mps 739 mmHg 41%
    19:00 +28°C° 0 mm 3 mps 739 mmHg 46%
    20:00 +27°C° 0 mm 3 mps 739 mmHg 50%
    21:00 +27°C° 0 mm 2 mps 739 mmHg 53%
    22:00 +26°C° 0 mm 2 mps 740 mmHg 57%
    23:00 +25°C° 0 mm 2 mps 739 mmHg 60%

    26 November, Sunday

    Time Temperature Precipitation Wind Pressure Humidity
    00:00 +25°C° 0 mm 1 mps 739 mmHg 62%
    01:00 +24°C° 0 mm 1 mps 739 mmHg 65%
    02:00 +24°C° 0 mm 1 mps 739 mmHg 65%
    03:00 +24°C° 0 mm 1 mps 739 mmHg 66%
    04:00 +23°C° 0 mm 2 mps 739 mmHg 66%
    05:00 +23°C° 0 mm 2 mps 739 mmHg 63%
    06:00 +22°C° 0 mm 3 mps 740 mmHg 59%
    07:00 +22°C° 0 mm 4 mps 741 mmHg 55%
    08:00 +25°C° 0 mm 4 mps 741 mmHg 46%
    09:00 +26°C° 0 mm 5 mps 741 mmHg 38%
    10:00 +28°C° 0 mm 5 mps 742 mmHg 30%
    11:00 +29°C° 0 mm 5 mps 741 mmHg 27%
    12:00 +32°C° 0 mm 5 mps 740 mmHg 24%
    13:00 +33°C° 0 mm 5 mps 739 mmHg 21%
    14:00 +33°C° 0 mm 5 mps 739 mmHg 22%
    15:00 +33°C° 0 mm 5 mps 739 mmHg 22%
    16:00 +33°C° 0 mm 4 mps 738 mmHg 22%
    17:00 +32°C° 0 mm 4 mps 738 mmHg 25%
    18:00 +29°C° 0 mm 3 mps 739 mmHg 28%
    19:00 +28°C° 0 mm 3 mps 739 mmHg 32%
    20:00 +27°C° 0 mm 3 mps 739 mmHg 33%
    21:00 +27°C° 0 mm 2 mps 739 mmHg 34%
    22:00 +26°C° 0 mm 2 mps 740 mmHg 35%
    23:00 +26°C° 0 mm 2 mps 739 mmHg 37%

    27 November, Monday

    Time Temperature Precipitation Wind Pressure Humidity
    00:00 +25°C° 0 mm 2 mps 739 mmHg 39%
    01:00 +25°C° 0 mm 2 mps 739 mmHg 41%
    02:00 +24°C° 0 mm 3 mps 738 mmHg 42%
    03:00 +24°C° 0 mm 3 mps 738 mmHg 43%
    04:00 +22°C° 0 mm 3 mps 738 mmHg 44%
    05:00 +22°C° 0 mm 3 mps 739 mmHg 44%
    06:00 +22°C° 0 mm 3 mps 739 mmHg 44%
    07:00 +21°C° 0 mm 3 mps 739 mmHg 44%
    08:00 +24°C° 0 mm 3 mps 740 mmHg 40%
    09:00 +26°C° 0 mm 3 mps 740 mmHg 35%
    10:00 +28°C° 0 mm 4 mps 740 mmHg 30%
    11:00 +29°C° 0 mm 4 mps 739 mmHg 27%
    12:00 +30°C° 0 mm 4 mps 738 mmHg 25%
    13:00 +32°C° 0 mm 4 mps 738 mmHg 22%
    14:00 +32°C° 0 mm 4 mps 737 mmHg 21%
    15:00 +32°C° 0 mm 4 mps 737 mmHg 20%
    16:00 +32°C° 0 mm 4 mps 736 mmHg 19%
    17:00 +30°C° 0 mm 4 mps 737 mmHg 23%
    18:00 +28°C° 0 mm 3 mps 737 mmHg 27%
    19:00 +27°C° 0 mm 2 mps 737 mmHg 30%
    20:00 +26°C° 0 mm 2 mps 737 mmHg 32%
    21:00 +25°C° 0 mm 2 mps 738 mmHg 35%
    22:00 +24°C° 0 mm 2 mps 738 mmHg 37%
    23:00 +24°C° 0 mm 1 mps 737 mmHg 41%

    28 November, Tuesday

    Time Temperature Precipitation Wind Pressure Humidity
    00:00 +23°C° 0 mm 1 mps 737 mmHg 45%
    01:00 +22°C° 0 mm 1 mps 737 mmHg 49%
    02:00 +21°C° 0 mm 1 mps 737 mmHg 53%
    03:00 +21°C° 0 mm 1 mps 736 mmHg 57%
    04:00 +20°C° 0 mm 1 mps 736 mmHg 61%
    05:00 +20°C° 0 mm 1 mps 737 mmHg 60%
    06:00 +20°C° 0 mm 1 mps 737 mmHg 58%
    07:00 +20°C° 0 mm 1 mps 737 mmHg 57%
    08:00 +23°C° 0 mm 2 mps 738 mmHg 47%
    09:00 +25°C° 0 mm 2 mps 738 mmHg 37%
    10:00 +27°C° 0 mm 2 mps 738 mmHg 27%
    11:00 +29°C° 0 mm 3 mps 738 mmHg 24%
    12:00 +30°C° 0 mm 3 mps 737 mmHg 21%
    13:00 +31°C° 0 mm 3 mps 736 mmHg 18%
    14:00 +31°C° 0 mm 3 mps 736 mmHg 19%
    15:00 +31°C° 0 mm 3 mps 736 mmHg 19%
    16:00 +31°C° 0 mm 3 mps 735 mmHg 20%
    17:00 +30°C° 0 mm 3 mps 736 mmHg 25%
    18:00 +28°C° 0 mm 3 mps 736 mmHg 30%
    19:00 +26°C° 0 mm 2 mps 736 mmHg 36%
    20:00 +25°C° 0 mm 2 mps 736 mmHg 40%
    21:00 +25°C° 0 mm 2 mps 737 mmHg 45%
    22:00 +24°C° 0 mm 2 mps 737 mmHg 49%
    23:00 +23°C° 0 mm 1 mps 737 mmHg 55%
    Show more